This is the latest recevied weather packets stored in our database for station/object N6RDS-8. If no packets are shown the sender has not sent any weather packets the latest 10 day(s).
| Time | Temp. | Humidity | Pressure | Rain* | Wind** | Luminosity | Snow |
|---|---|---|---|---|---|---|---|
| 1777672201 | 26.67° C | 32% | 1015.6 hPa | 0 mm | - | 616 W/m² | - |
| 1777671896 | 25.56° C | 33% | 1015.6 hPa | 0 mm | - | 627 W/m² | - |
| 1777671592 | 25.56° C | 32% | 1015.5 hPa | 0 mm | - | 637 W/m² | - |
| 1777671290 | 25.56° C | 32% | 1015.8 hPa | 0 mm | - | 647 W/m² | - |
| 1777670985 | 25.56° C | 34% | 1015.9 hPa | 0 mm | - | 658 W/m² | - |
| 1777670682 | 25.56° C | 32% | 1015.9 hPa | 0 mm | - | 666 W/m² | - |
| 1777670379 | 25.56° C | 33% | 1016.2 hPa | 0 mm | - | 675 W/m² | - |
| 1777670076 | 25.56° C | 32% | 1016 hPa | 0 mm | - | 685 W/m² | - |
| 1777669773 | 25.56° C | 32% | 1016.5 hPa | 0 mm | - | 692 W/m² | - |
| 1777669470 | 26.11° C | 32% | 1016.2 hPa | 0 mm | - | 701 W/m² | - |
| 1777669167 | 25° C | 33% | 1016.6 hPa | 0 mm | - | 709 W/m² | - |
| 1777668863 | 25° C | 34% | 1016.6 hPa | 0 mm | - | 713 W/m² | - |
| 1777668561 | 25.56° C | 35% | 1016.5 hPa | 0 mm | - | 718 W/m² | - |
| 1777668257 | 25° C | 35% | 1016.6 hPa | 0 mm | - | 727 W/m² | - |
| 1777667650 | 25° C | 36% | 1016.7 hPa | 0 mm | - | 738 W/m² | - |
| 1777667348 | 25° C | 35% | 1016.7 hPa | 0 mm | - | 743 W/m² | - |
| 1777667044 | 24.44° C | 39% | 1016.8 hPa | 0 mm | - | 747 W/m² | - |
| 1777666741 | 25° C | 36% | 1016.9 hPa | 0 mm | - | 750 W/m² | - |
| 1777666438 | 23.33° C | 39% | 1016.9 hPa | 0 mm | - | 754 W/m² | - |
| 1777666134 | 24.44° C | 39% | 1017 hPa | 0 mm | - | 758 W/m² | - |
| 1777665831 | 23.33° C | 40% | 1016.7 hPa | 0 mm | - | 760 W/m² | - |
| 1777665530 | 23.33° C | 39% | 1017 hPa | 0 mm | - | 763 W/m² | - |
| 1777665225 | 23.89° C | 41% | 1017.1 hPa | 0 mm | - | 765 W/m² | - |
| 1777664921 | 23.33° C | 41% | 1016.9 hPa | 0 mm | - | 767 W/m² | - |
| 1777664617 | 22.78° C | 42% | 1017.1 hPa | 0 mm | - | 767 W/m² | - |
* Rain latest hour (hover to see other rain measurements)
** Current wind speed in m/s (hover to see current wind gust speed)